Flag for Qatar Weather past 2 weeks in Al-Jamiliyah, Qatar

Now
80 °F

Fog.


Feels Like: 86 °F
Forecast: 81 / 91 °F
Wind: 10 mph from North

Location: Al Udeid

Current Time: Oct 22, 2014 at 5:14:11 AM

Latest Report: Oct 22, 2014 at 4:58 AM


Visibility: 5 mi

Pressure: 29.96 "Hg

Humidity: 87%

Dew point: 76 °F

Location of Al-JamiliyahLocation

Historic Weather in Al-Jamiliyah — Graph

°F

Al-Jamiliyah temperature yesterday

Maximum temperature yesterday: 101 °F (at 1:58 PM)
Minimum temperature yesterday: 76 °F (at 5:58 AM)
Average temperature yesterday: 87 °F

Past Weeks' High & Low Weather Summary

 TemperatureHumidityPressure
High102 °F (Oct 17, 2:58 PM)94% (Oct 12, 6:58 AM)29.97 "Hg (Oct 12, 6:58 AM)
Low74 °F (Oct 20, 4:58 AM)12% (Oct 17, 2:58 PM)29.77 "Hg (Oct 7, 2:58 PM)
Average88 °F54%29.87 "Hg
* Reported Oct 7 3:58 AM — Oct 22 3:58 AM, Al-Jamiliyah, Weather by CustomWeather, © 2014

Note: Actual official high and low records may vary slightly from our data, if they occured in-between our weather recording intervals... More about our weather records

Advertising

Al-Jamiliyah weather history for previous 24 hours

 ConditionsComfort  
Time TempWeatherWind HumidityBarometerVisibility
3:58 AM
Oct 22
80 °FFog.13 mph84%29.94 "Hg5 mi
2:58 AM80 °FFog.8 mph82%29.92 "Hg5 mi
1:58 AM80 °FClear.6 mph74%29.92 "Hg6 mi
12:58 AM80 °FClear.5 mph81%29.93 "Hg6 mi
11:58 PM
Oct 21
80 °FClear.6 mph82%29.93 "Hg5 mi
10:58 PM81 °FClear.5 mph76%29.92 "Hg6 mi
9:58 PM82 °FClear.5 mph76%29.92 "Hg6 mi
8:58 PM85 °FClear.7 mph74%29.92 "HgN/A
7:58 PM85 °FClear.8 mph69%29.92 "HgN/A
6:58 PM87 °FSunny.8 mph62%29.91 "HgN/A
5:58 PM90 °FSunny.8 mph51%29.89 "HgN/A
4:58 PM94 °FSunny.9 mph33%29.87 "HgN/A
3:58 PM99 °FSunny.8 mph18%29.86 "HgN/A
2:58 PM100 °FSunny.3 mph18%29.86 "HgN/A
1:58 PM101 °FSunny.5 mph17%29.87 "HgN/A
12:58 PM100 °FSunny.7 mph16%29.89 "HgN/A
11:58 AM98 °FSunny.15 mph21%29.90 "HgN/A
10:58 AM97 °FSunny.20 mph23%29.92 "Hg6 mi
9:58 AM93 °FSunny.16 mph41%29.94 "HgN/A
8:58 AM89 °FSunny.15 mph52%29.96 "HgN/A
7:58 AM85 °FSunny.9 mph54%29.95 "HgN/A
6:58 AM79 °FSunny.7 mph80%29.93 "HgN/A
5:58 AM76 °FClear.6 mph86%29.91 "HgN/A
Weather by CustomWeather, © 2014

See weather overviewHow to use our weather pages